ROMMA est une association bénévole à but non lucratif. Votre soutien est indispensable : ADHERER à ROMMA ou FAIRE un DON

Grimentz - (CH, Suisse)

Alpes Valaisannes (1710 m)   Longitude: 07° 34' E   Latitude: 46° 11' N Station partenaire n°125
 

Détail journalier du     <<     >>

Température Precipitation Humidité Vent Dir Rafale Dir. rafale Ensol.
Heure (°C) (mm) (%) (km/h) (km/h) (min)
01:00 9.80525ONO15NO0
02:00 10.20524ONO13ONO0
03:00 9.40575O11O0
04:00 9.80535ONO13NNO0
05:00 8.60603ONO8NO0
06:00 8.60585ONO11ONO0
07:00 8.60595ONO11ONO0
08:00 9.10554NO11ONO0
09:00 8.60594ONO10O0
10:00 12.10461---6S45
11:00 14.60422SSO8SSO60
12:00 14.80373SSE8SSE60
13:00 15.60413SSE10ESE60
14:00 16.10413E6E60
15:00 16.30393SE8SSO60
16:00 16.50402SE5SE60
17:00 13.20502SSE8NO10
18:00 12.604905NO0
19:00 11.40514ONO6ONO0
20:00 10.40542NO10O0
21:00 10.30574ONO8NO0
22:00 10.80524ONO10ONO0
23:00 10.70513NO10NO0
minuit 10.40534NO10O0

Graphique du 26-10-2019

 

Serveur OMMA